[[{"header":{"parameterUnit":"m.s-1","parameterCategory":2,"la1":30.2991,"la2":30.254,"lo1":-89.0895,"lo2":-89.0444,"dy":0.0017,"dx":0.0017,"nx":28,"ny":28,"refTime":"2024-10-20T03:00:00:Z","depth":"0","parameterNumber":2,"parameterNumberName":"U-component_of_CURRENTS"},"data":[0,0,0,0,0,0,0,0,0,0,0,0,0,0,0,0,0,0,0,0,0,0,0,0,0,0,0,0,0,0,0,0,0,0,0,0,0,0,0,0,0,0,0,0,0,0,0,0,0,0,0,0,0,0,0,0,0,0,0.2289,0.2288,0,0.2206,0.2206,0.2205,0.2175,0.2175,0.2175,0.2175,0.209,0.2087,0.2085,0,0,0,0,0,0,0,0,0,0,0,0,0,0.2488,0.2485,0.229,0.2288,0.2287,0.2206,0.2206,0.2205,0.2175,0.2175,0.2175,0.2175,0.209,0.2088,0.2085,0,0,0,0,0,0,0,0,0,0,0,0,0,0.2406,0.2483,0.229,0.226,0.2256,0.2207,0.2206,0.2205,0.2175,0.2175,0.2175,0.2175,0.2091,0.2088,0.2085,0.2064,0,0,0.2074,0.2073,0,0,0,0,0,0,0,0,0.2411,0.2399,0.2266,0.2262,0.2258,0.2198,0.2244,0.2156,0.2175,0.221,0.2175,0.2175,0.2124,0.2118,0.2107,0.206,0.2056,0.2074,0.2072,0.207,0.2069,0,0,0,0,0,0,0,0.2416,0.2403,0.226,0.2264,0.2259,0.2273,0.2261,0.2228,0.217,0.2207,0.2203,0.2189,0.2122,0.211,0.2104,0.2055,0.2074,0.2071,0.2069,0.2067,0.2018,0.2019,0,0,0,0,0,0,0.2416,0.2408,0.2262,0.2257,0.2332,0.2269,0.2256,0.222,0.217,0.2162,0.2189,0.2188,0.2116,0.2108,0.2101,0.2092,0.207,0.2067,0.2065,0.2017,0.2018,0.2019,0,0,0,0,0,0,0.242,0.2403,0.2266,0.233,0.2313,0.2265,0.2225,0.2218,0.2206,0.2156,0.2149,0.2184,0.2116,0.2106,0.2078,0.2087,0.2066,0.2062,0.2016,0.2018,0.2019,0.206,0,0,0,0,0,0,0.2426,0.2404,0.2391,0.2329,0.2309,0.2238,0.2225,0.2217,0.2195,0.2193,0.2149,0.2141,0.2115,0.2084,0.2075,0.2082,0.206,0.2016,0.2017,0.2018,0.2058,0.2063,0.2067,0,0,0,0,0,0.2433,0.2403,0.239,0.2374,0.2287,0.2237,0.2229,0.2199,0.2195,0.2189,0.2165,0.2143,0.2087,0.2081,0.2071,0.2077,0.2015,0.2017,0.2018,0.2056,0.2062,0.2067,0,0,0,0,0,0,0.2475,0.2395,0.238,0.2325,0.2289,0.2231,0.2218,0.2202,0.2178,0.2178,0.2141,0.2131,0.2114,0.2091,0.2086,0.207,0.2051,0.2051,0.2084,0.2089,0.2093,0.2114,0.2057,0,0,0,0,0,0.2479,0.2438,0.2374,0.2334,0.2315,0.2272,0.2252,0.2231,0.2195,0.2185,0.2155,0.2131,0.2113,0.2097,0.2074,0.2056,0.2072,0.2058,0.2062,0.2066,0.2078,0.2116,0.2125,0.2024,0.2024,0.2024,0,0,0.248,0.2435,0.241,0.2343,0.2311,0.2285,0.226,0.2226,0.2216,0.2178,0.216,0.2141,0.2112,0.2098,0.2089,0.2078,0.2106,0.2068,0.2071,0.2082,0.2119,0.2128,0.2137,0.2026,0.2025,0.2025,0,0,0.2468,0.2426,0.2394,0.2367,0.232,0.2296,0.2289,0.2237,0.2228,0.2205,0.2186,0.2177,0.2134,0.2125,0.2114,0.2129,0.2129,0.2119,0.2153,0.2189,0.2198,0.2206,0.2252,0.2263,0.212,0.212,0.212,0,0.2481,0.2425,0.2382,0.2354,0.2334,0.2303,0.2281,0.2266,0.2219,0.2219,0.2206,0.218,0.2152,0.2153,0.216,0.2139,0.2164,0.2133,0.2196,0.2204,0.2212,0.2256,0.2269,0.2122,0.2122,0.2121,0.2121,0,0.2446,0.2413,0.2393,0.2349,0.233,0.2302,0.2275,0.2269,0.2259,0.2247,0.2248,0.2222,0.2213,0.2203,0.2182,0.2218,0.2222,0.2199,0.2185,0.2225,0.2269,0.2281,0.2125,0.2124,0.2124,0.2123,0,0,0.2428,0.238,0.2373,0.236,0.2326,0.2299,0.2301,0.2287,0.2298,0.2279,0.2298,0.2275,0.2276,0.2266,0.2247,0.2273,0.2345,0.2262,0.2263,0.2312,0.2442,0.234,0.2343,0.2336,0.2338,0.234,0.2457,0,0.2414,0.2376,0.2355,0.2329,0.2305,0.2297,0.23,0.2295,0.2302,0.2318,0.2318,0.2325,0.2296,0.2301,0.2326,0.2337,0.2378,0.2317,0.2393,0.2395,0.2302,0.2353,0.2212,0.2294,0.2469,0.2471,0.2472,0,0.2375,0.2359,0.2333,0.2319,0.2309,0.2301,0.2313,0.2311,0.234,0.2352,0.2377,0.2381,0.2417,0.2389,0.2456,0.242,0.2444,0.2455,0.2459,0.2357,0.2314,0.228,0.231,0.2225,0.2491,0.2489,0.2488,0,0.2363,0.2336,0.2321,0.2311,0.2297,0.2299,0.23,0.2321,0.2328,0.2384,0.2408,0.2452,0.2472,0.2517,0.2533,0.2509,0.2612,0.258,0.2518,0.2512,0.2403,0.2382,0.2359,0.2648,0.2648,0.2648,0.2647,0,0.2334,0.2318,0.2317,0.2301,0.2299,0.2293,0.2302,0.2322,0.2356,0.2373,0.2424,0.245,0.2506,0.2556,0.2579,0.2584,0.2654,0.2543,0.2536,0.2412,0.2391,0.2318,0.2288,0.2652,0.2651,0.265,0.265,0,0.2297,0.2298,0.2277,0.2279,0.2284,0.2276,0.2285,0.2297,0.2341,0.2375,0.2397,0.2466,0.2523,0.2576,0.2651,0.2621,0.256,0.2639,0.249,0.2461,0.2273,0.225,0.2189,0.2119,0.2589,0.2587,0.2586,0,0.2261,0.2252,0.2256,0.2253,0.2249,0.2248,0.2253,0.2284,0.2302,0.2369,0.2389,0.2459,0.2484,0.2557,0.2538,0.2572,0.2505,0.2447,0.2355,0.2253,0.2226,0.2167,0.211,0.225,0.2245,0.2242,0.2239,0,0.2204,0.2216,0.2211,0.2207,0.2207,0.2196,0.221,0.2217,0.226,0.229,0.2321,0.2347,0.2406,0.2352,0.2383,0.2378,0.2285,0.2372,0.2314,0.1993,0.1886,0.1817,0.22,0.2209,0.2212,0.2214,0.2216,0.2217,0.2164,0.2154,0.2156,0.2139,0.2145,0.2117,0.2076,0.2108,0.2101,0.2111,0.2203,0.2189,0.2189,0.2186,0.2178,0.2022,0.2067,0.1925,0.1925,0.1891,0.1744,0.2052,0.2007,0.2009,0.201,0.2012,0.2013,0,0.2096,0.2092,0.2083,0.2048,0.2008,0.2033,0.2022,0.1969,0.1925,0.1982,0.1987,0.1919,0.1849,0.1835,0.1699,0.16,0.1551,0.1537,0.1437,0.1418,0.1734,0.1633,0.1446,0.1446,0.1446,0.1446,0.1446,0.1446,0.2058,0.2025,0.2012,0.1907,0.1879,0.1785,0.1748,0.1711,0.1718,0.1651,0.1599,0.1622,0.1599,0.1477,0.1318,0.1278,0.1188,0.1104,0.1148,0.1372,0.1408,0.1443,0.1341,0.1096,0.1095,0.0752,0.0749,0.0747]},{"header":{"parameterUnit":"m.s-1","parameterCategory":2,"la1":30.2991,"la2":30.254,"lo1":-89.0895,"lo2":-89.0444,"dy":0.0017,"dx":0.0017,"nx":28,"ny":28,"refTime":"2024-10-20T03:00:00:Z","depth":"0","parameterNumber":3,"parameterNumberName":"V-component_of_CURRENTS"},"data":[0,0,0,0,0,0,0,0,0,0,0,0,0,0,0,0,0,0,0,0,0,0,0,0,0,0,0,0,0,0,0,0,0,0,0,0,0,0,0,0,0,0,0,0,0,0,0,0,0,0,0,0,0,0,0,0,0,0,-0.0594,-0.0592,0,-0.0546,-0.0547,-0.0547,-0.0575,-0.0576,-0.0577,-0.0577,-0.0577,-0.0577,-0.0576,0,0,0,0,0,0,0,0,0,0,0,0,0,-0.0726,-0.0724,-0.0594,-0.0592,-0.0591,-0.0546,-0.0547,-0.0547,-0.0575,-0.0576,-0.0577,-0.0577,-0.0578,-0.0577,-0.0576,0,0,0,0,0,0,0,0,0,0,0,0,0,-0.0681,-0.0723,-0.0594,-0.0593,-0.0592,-0.0546,-0.0547,-0.0547,-0.0575,-0.0576,-0.0577,-0.0578,-0.0578,-0.0577,-0.0576,-0.0555,0,0,-0.0574,-0.0574,0,0,0,0,0,0,0,0,-0.0683,-0.0677,-0.0595,-0.0593,-0.0592,-0.056,-0.0593,-0.0549,-0.0575,-0.0591,-0.0577,-0.0578,-0.057,-0.0569,-0.0571,-0.0555,-0.0555,-0.0574,-0.0573,-0.0573,-0.0573,0,0,0,0,0,0,0,-0.0686,-0.0679,-0.0584,-0.0593,-0.0591,-0.0601,-0.0596,-0.0585,-0.0584,-0.059,-0.0589,-0.057,-0.057,-0.0571,-0.0571,-0.0555,-0.0574,-0.0573,-0.0573,-0.0572,-0.0525,-0.0524,0,0,0,0,0,0,-0.0672,-0.0682,-0.0585,-0.0582,-0.0631,-0.0597,-0.0592,-0.0577,-0.0583,-0.0582,-0.0569,-0.0571,-0.0572,-0.0572,-0.0571,-0.0535,-0.0573,-0.0572,-0.0572,-0.0526,-0.0525,-0.0524,0,0,0,0,0,0,-0.0675,-0.0664,-0.0587,-0.0624,-0.0614,-0.0593,-0.0576,-0.0575,-0.0569,-0.0565,-0.0567,-0.0561,-0.0573,-0.0572,-0.0551,-0.0536,-0.0572,-0.0571,-0.0527,-0.0525,-0.0524,-0.047,0,0,0,0,0,0,-0.068,-0.0666,-0.0658,-0.0623,-0.061,-0.0548,-0.0574,-0.0573,-0.0551,-0.0554,-0.0559,-0.056,-0.0573,-0.0552,-0.055,-0.0535,-0.0571,-0.0528,-0.0526,-0.0525,-0.0473,-0.0467,-0.0462,0,0,0,0,0,-0.0685,-0.066,-0.0658,-0.0646,-0.0597,-0.0546,-0.0542,-0.0536,-0.055,-0.0537,-0.0542,-0.056,-0.0542,-0.055,-0.0548,-0.0533,-0.0528,-0.0526,-0.0525,-0.0475,-0.0468,-0.0463,0,0,0,0,0,0,-0.0706,-0.0658,-0.0656,-0.0617,-0.0579,-0.0547,-0.0531,-0.0526,-0.0521,-0.0527,-0.054,-0.0541,-0.052,-0.053,-0.0539,-0.0516,-0.0541,-0.0539,-0.0504,-0.0498,-0.0493,-0.048,-0.057,0,0,0,0,0,-0.0705,-0.068,-0.0633,-0.06,-0.0581,-0.0557,-0.0538,-0.0527,-0.0509,-0.0509,-0.0512,-0.0517,-0.0511,-0.0507,-0.0505,-0.0483,-0.0478,-0.0476,-0.0471,-0.0466,-0.0455,-0.0437,-0.0429,-0.0518,-0.0518,-0.0518,0,0,-0.0701,-0.0671,-0.0657,-0.0603,-0.058,-0.0538,-0.055,-0.0508,-0.048,-0.0508,-0.0485,-0.0494,-0.0501,-0.0482,-0.0474,-0.0488,-0.0434,-0.0464,-0.046,-0.0451,-0.0434,-0.0426,-0.0418,-0.0517,-0.0517,-0.0517,0,0,-0.0668,-0.0656,-0.0621,-0.0588,-0.0536,-0.0519,-0.0502,-0.0465,-0.0461,-0.043,-0.0448,-0.0442,-0.0435,-0.0436,-0.0436,-0.0396,-0.0406,-0.0404,-0.0365,-0.0348,-0.034,-0.0333,-0.0297,-0.0288,-0.0402,-0.0402,-0.0402,0,-0.0666,-0.0614,-0.06,-0.0554,-0.052,-0.0507,-0.0456,-0.0443,-0.0406,-0.0389,-0.0416,-0.0396,-0.0412,-0.0376,-0.0376,-0.0383,-0.0371,-0.0388,-0.034,-0.0333,-0.0327,-0.0292,-0.0282,-0.0399,-0.04,-0.04,-0.04,0,-0.0595,-0.0562,-0.0535,-0.048,-0.0447,-0.0399,-0.0368,-0.0346,-0.0346,-0.0329,-0.0298,-0.0319,-0.0307,-0.0317,-0.034,-0.0302,-0.0304,-0.0334,-0.0354,-0.0315,-0.028,-0.0271,-0.0395,-0.0396,-0.0397,-0.0398,0,0,-0.0565,-0.0501,-0.0491,-0.0457,-0.0404,-0.0361,-0.0321,-0.0267,-0.0222,-0.0226,-0.0171,-0.0194,-0.0209,-0.0211,-0.0236,-0.0232,-0.0189,-0.0267,-0.0268,-0.0227,-0.0132,-0.0154,-0.0146,-0.0212,-0.0211,-0.021,-0.0118,0,-0.0512,-0.0423,-0.0406,-0.0327,-0.0277,-0.0262,-0.0219,-0.0175,-0.0152,-0.0101,-0.0121,-0.0089,-0.0166,-0.0158,-0.0166,-0.018,-0.0165,-0.021,-0.018,-0.0178,-0.02,-0.0137,-0.0131,-0.0051,-0.0109,-0.0108,-0.0107,0,-0.0438,-0.0392,-0.0307,-0.0242,-0.0218,-0.0178,-0.0098,-0.0053,0.0006,0.002,0.0038,0.0029,0.0036,-0.0038,-0.0041,-0.0067,-0.0093,-0.0112,-0.0109,-0.0142,-0.0184,-0.0104,-0.0033,-0.0091,-0.0093,-0.0094,-0.0095,0,-0.0397,-0.032,-0.0254,-0.0227,-0.0154,-0.012,-0.0081,-0.0014,0.0048,0.0104,0.0154,0.0149,0.0167,0.0121,0.0056,0.0015,0.0066,0.0006,-0.0027,-0.0027,-0.0023,-0.0026,-0.0002,0.0021,0.0021,0.0021,0.002,0,-0.0332,-0.0277,-0.0233,-0.019,-0.0107,-0.0076,0.0023,0.0062,0.0144,0.0244,0.0217,0.0288,0.0204,0.0214,0.013,0.0091,0.0123,0.0006,-0.0001,-0.0003,-0.0006,-0.006,-0.0113,0.0024,0.0023,0.0023,0.0022,0,-0.0276,-0.025,-0.0169,-0.0104,-0.008,-0.0015,0.0087,0.017,0.0222,0.0355,0.0377,0.0416,0.0421,0.0351,0.0307,0.0204,0.0121,0.0135,0.0146,0.0137,0.0011,-0.0039,-0.0024,-0.006,0.0115,0.0115,0.0115,0,-0.0229,-0.0185,-0.0105,-0.0051,-0.0019,0.0068,0.0143,0.0205,0.0299,0.0439,0.0517,0.0563,0.061,0.054,0.0385,0.0277,0.0179,0.0189,0.0091,0.003,-0.003,-0.0071,-0.0106,0.0136,0.0136,0.0136,0.0136,0,-0.0142,-0.0124,-0.0062,0.0039,0.0115,0.0208,0.031,0.0389,0.049,0.0585,0.0716,0.0763,0.0717,0.0611,0.0451,0.035,0.0134,0.0186,0.0128,-0.0002,-0.0046,-0.0092,0.0059,0.0138,0.0138,0.0138,0.0138,0.0137,-0.0077,-0.0023,0.0049,0.0145,0.0233,0.034,0.0412,0.0523,0.0652,0.0799,0.085,0.0928,0.0782,0.0564,0.0431,0.018,0.0156,0.0078,0.0032,0.0004,-0.0065,0.0093,0.0144,0.0144,0.0144,0.0144,0.0144,0,0.0009,0.0062,0.0158,0.0262,0.0354,0.0383,0.0524,0.0589,0.0719,0.0871,0.0965,0.0945,0.0768,0.0554,0.0219,0.005,-0.0025,-0.0035,-0.0085,-0.0109,0.0051,0.0015,0.0035,0.0035,0.0035,0.0035,0.0035,0.0035,0.0063,0.0154,0.0191,0.034,0.041,0.0511,0.0577,0.0674,0.0781,0.0917,0.0972,0.1014,0.0853,0.0353,0.0011,-0.0074,-0.0197,-0.0212,-0.0275,-0.0167,-0.016,-0.0153,-0.0199,-0.0224,-0.0224,-0.0413,-0.0415,-0.0416]}],[{"header":{"parameterUnit":"m.s-1","parameterCategory":2,"la1":30.2991,"la2":30.254,"lo1":-89.0895,"lo2":-89.0444,"dy":0.0017,"dx":0.0017,"nx":28,"ny":28,"refTime":"2024-10-20T03:00:00:Z","depth":"2","parameterNumber":2,"parameterNumberName":"U-component_of_CURRENTS"},"data":[0,0,0,0,0,0,0,0,0,0,0,0,0,0,0,0,0,0,0,0,0,0,0,0,0,0,0,0,0,0,0,0,0,0,0,0,0,0,0,0,0,0,0,0,0,0,0,0,0,0,0,0,0,0,0,0,0,0,0.1724,0.1724,0,0.1687,0.1686,0.1685,0.1675,0.1675,0.1676,0.1677,0.1728,0.1729,0.173,0,0,0,0,0,0,0,0,0,0,0,0,0,0.1737,0.1737,0.1724,0.1724,0.1724,0.1687,0.1686,0.1685,0.1675,0.1675,0.1676,0.1677,0.1728,0.1729,0.173,0,0,0,0,0,0,0,0,0,0,0,0,0,0.1715,0.1737,0.1724,0.1718,0.1717,0.1687,0.1686,0.1685,0.1674,0.1675,0.1676,0.1677,0.1728,0.1729,0.173,0.1718,0,0,0.1733,0.1734,0,0,0,0,0,0,0,0,0.1716,0.1714,0.1719,0.1718,0.1718,0.169,0.1709,0.1702,0.1674,0.1686,0.1677,0.1678,0.1726,0.1727,0.171,0.1721,0.1723,0.1734,0.1734,0.1735,0.1735,0,0,0,0,0,0,0,0.1718,0.1715,0.1705,0.1719,0.1718,0.17,0.1698,0.1707,0.1699,0.1685,0.1685,0.1688,0.1726,0.1709,0.1712,0.1724,0.1734,0.1735,0.1735,0.1736,0.1807,0.1808,0,0,0,0,0,0,0.1733,0.1717,0.1706,0.1704,0.1724,0.1699,0.1697,0.1694,0.1697,0.1699,0.1687,0.1688,0.1707,0.1711,0.1714,0.1768,0.1735,0.1736,0.1737,0.1806,0.1807,0.1808,0,0,0,0,0,0,0.1733,0.1732,0.1708,0.1713,0.171,0.1699,0.1696,0.1693,0.1697,0.1699,0.1702,0.1697,0.1708,0.1712,0.1754,0.1768,0.1736,0.1738,0.1804,0.1806,0.1808,0.1834,0,0,0,0,0,0,0.1733,0.1732,0.1729,0.1714,0.171,0.1709,0.1695,0.1692,0.1698,0.1699,0.1708,0.1712,0.1709,0.1752,0.1755,0.1769,0.1738,0.1803,0.1805,0.1807,0.1831,0.1836,0.184,0,0,0,0,0,0.1734,0.1725,0.1729,0.1728,0.1708,0.171,0.1706,0.1698,0.1698,0.1704,0.1721,0.1713,0.1768,0.1754,0.1757,0.1772,0.1802,0.1804,0.1807,0.1829,0.1835,0.184,0,0,0,0,0,0,0.1725,0.1723,0.1727,0.1717,0.1726,0.1711,0.1716,0.1709,0.172,0.1732,0.1731,0.1736,0.1774,0.1775,0.176,0.18,0.1782,0.1785,0.1798,0.1804,0.1808,0.1804,0.1739,0,0,0,0,0,0.1724,0.1737,0.1725,0.1736,0.1735,0.173,0.1729,0.1728,0.1737,0.1742,0.1747,0.1763,0.1781,0.1797,0.1808,0.1834,0.1839,0.1846,0.185,0.1854,0.1854,0.1893,0.1901,0.1817,0.1817,0.1817,0,0,0.1725,0.1736,0.1738,0.1738,0.1746,0.1742,0.1732,0.1746,0.1754,0.1749,0.1771,0.178,0.1792,0.1819,0.1836,0.1827,0.1879,0.1857,0.186,0.1858,0.1897,0.1905,0.1912,0.1819,0.1818,0.1818,0,0,0.1743,0.1747,0.1755,0.1761,0.1779,0.1771,0.1782,0.1774,0.1784,0.1809,0.1806,0.183,0.1853,0.1858,0.1866,0.1905,0.1901,0.1909,0.1929,0.1967,0.1975,0.1981,0.1989,0.1996,0.1912,0.1912,0.1912,0,0.174,0.1754,0.176,0.177,0.1779,0.1788,0.179,0.1798,0.1809,0.1825,0.183,0.1865,0.187,0.1902,0.1908,0.1913,0.1928,0.1905,0.1973,0.1979,0.1985,0.1992,0.1999,0.1914,0.1914,0.1914,0.1913,0,0.176,0.1768,0.1783,0.1799,0.1803,0.1822,0.1826,0.1841,0.1858,0.1865,0.1911,0.192,0.1944,0.1943,0.1936,0.1976,0.1969,0.1972,0.1956,0.1995,0.2,0.2007,0.1916,0.1916,0.1915,0.1915,0,0,0.1752,0.1783,0.1789,0.1799,0.1822,0.1825,0.1854,0.1872,0.1903,0.1923,0.196,0.198,0.1991,0.2001,0.1998,0.2018,0.2058,0.2012,0.2013,0.2014,0.213,0.2056,0.2056,0.2081,0.2083,0.2084,0.2113,0,0.1767,0.1782,0.1799,0.1819,0.1817,0.1842,0.1867,0.1892,0.1931,0.197,0.1995,0.2032,0.2016,0.2034,0.2055,0.2058,0.208,0.2049,0.2097,0.2098,0.2024,0.2064,0.189,0.1895,0.2119,0.212,0.2121,0,0.1764,0.1781,0.1794,0.1824,0.1828,0.1848,0.1897,0.1923,0.1983,0.2016,0.2064,0.2088,0.2116,0.2104,0.2144,0.2129,0.2134,0.2132,0.2134,0.206,0.2038,0.1896,0.1899,0.2133,0.2132,0.2131,0.213,0,0.1741,0.177,0.1786,0.1797,0.1831,0.1859,0.1885,0.1943,0.1975,0.2054,0.2086,0.2141,0.2168,0.2194,0.2192,0.218,0.223,0.2218,0.2157,0.2151,0.2008,0.1986,0.226,0.226,0.2259,0.2259,0.2259,0,0.1735,0.175,0.1784,0.1795,0.1828,0.1855,0.1907,0.195,0.2013,0.2047,0.2115,0.2145,0.2195,0.2226,0.2221,0.2207,0.2265,0.2163,0.2161,0.201,0.199,0.22,0.2193,0.226,0.226,0.226,0.226,0,0.1707,0.1734,0.175,0.1795,0.1819,0.1842,0.1905,0.1932,0.2008,0.2056,0.2079,0.2158,0.2193,0.2231,0.2266,0.2234,0.2232,0.2216,0.2019,0.1992,0.2116,0.211,0.2146,0.2144,0.2142,0.214,0.2139,0,0.169,0.1697,0.174,0.175,0.1783,0.1823,0.1847,0.1923,0.1949,0.2044,0.2054,0.2128,0.2136,0.2167,0.2145,0.2136,0.2199,0.1965,0.1905,0.2114,0.2108,0.2105,0.2102,0.1724,0.1719,0.1715,0.1712,0,0.1662,0.1684,0.1697,0.1709,0.1741,0.1761,0.1807,0.1821,0.1897,0.1925,0.1954,0.1973,0.2023,0.1929,0.1944,0.1915,0.195,0.1886,0.2177,0.1777,0.1718,0.1712,0.1722,0.1679,0.1682,0.1685,0.1686,0.1688,0.1631,0.1631,0.1641,0.1653,0.1682,0.1685,0.1667,0.1698,0.1707,0.1715,0.1793,0.1759,0.1786,0.1701,0.1649,0.1624,0.1759,0.1671,0.1682,0.1697,0.1641,0.1581,0.1505,0.1507,0.1509,0.1511,0.1512,0,0.1565,0.1578,0.1576,0.1576,0.156,0.161,0.1617,0.1564,0.1523,0.1549,0.1538,0.1395,0.1339,0.1385,0.1287,0.128,0.1269,0.1228,0.1198,0.1232,0.1263,0.1184,0.0927,0.0925,0.0923,0.0922,0,0,0.153,0.1502,0.1501,0.1456,0.1456,0.1405,0.1385,0.1327,0.1312,0.1219,0.118,0.1263,0.1327,0.1103,0.1077,0.0983,0.1099,0.0943,0.1414,0.1412,0.144,0.1521,0.1438,0,0,0,0,0]},{"header":{"parameterUnit":"m.s-1","parameterCategory":2,"la1":30.2991,"la2":30.254,"lo1":-89.0895,"lo2":-89.0444,"dy":0.0017,"dx":0.0017,"nx":28,"ny":28,"refTime":"2024-10-20T03:00:00:Z","depth":"2","parameterNumber":3,"parameterNumberName":"V-component_of_CURRENTS"},"data":[0,0,0,0,0,0,0,0,0,0,0,0,0,0,0,0,0,0,0,0,0,0,0,0,0,0,0,0,0,0,0,0,0,0,0,0,0,0,0,0,0,0,0,0,0,0,0,0,0,0,0,0,0,0,0,0,0,0,0.0263,0.0263,0,0.0271,0.0272,0.0272,0.0272,0.0272,0.0272,0.0271,0.0176,0.0174,0.0172,0,0,0,0,0,0,0,0,0,0,0,0,0,0.0296,0.0296,0.0263,0.0263,0.0263,0.0271,0.0272,0.0272,0.0272,0.0272,0.0271,0.0271,0.0177,0.0174,0.0171,0,0,0,0,0,0,0,0,0,0,0,0,0,0.0292,0.0295,0.0263,0.0263,0.0263,0.0271,0.0272,0.0272,0.0272,0.0272,0.0271,0.0271,0.0178,0.0174,0.0171,0.0156,0,0,0.016,0.0159,0,0,0,0,0,0,0,0,0.0292,0.0291,0.0263,0.0263,0.0263,0.0269,0.0249,0.0227,0.0272,0.027,0.0271,0.0271,0.0197,0.0192,0.0197,0.0151,0.0147,0.016,0.0158,0.0156,0.0155,0,0,0,0,0,0,0,0.0293,0.0291,0.0267,0.0263,0.0263,0.028,0.0279,0.0245,0.0234,0.027,0.027,0.0269,0.0196,0.0201,0.0195,0.0146,0.016,0.0157,0.0155,0.0153,0.0085,0.0085,0,0,0,0,0,0,0.0287,0.0291,0.0267,0.0267,0.0276,0.0279,0.0278,0.0268,0.0237,0.0232,0.0269,0.0269,0.0207,0.0199,0.0191,0.0167,0.0156,0.0153,0.0151,0.0084,0.0085,0.0085,0,0,0,0,0,0,0.0287,0.0284,0.0266,0.0279,0.0278,0.0279,0.0268,0.0269,0.0271,0.0237,0.0231,0.027,0.0207,0.0196,0.0152,0.0163,0.0151,0.0148,0.0084,0.0084,0.0085,0.0119,0,0,0,0,0,0,0.0288,0.0284,0.0281,0.0278,0.0277,0.0269,0.0269,0.0269,0.0271,0.027,0.0236,0.0227,0.0205,0.0157,0.0148,0.0158,0.0145,0.0084,0.0084,0.0085,0.0118,0.0121,0.0123,0,0,0,0,0,0.0289,0.0286,0.0281,0.0278,0.027,0.0268,0.027,0.027,0.0271,0.0272,0.0241,0.0228,0.0155,0.0153,0.0143,0.0152,0.0083,0.0084,0.0085,0.0116,0.012,0.0123,0,0,0,0,0,0,0.0293,0.0285,0.028,0.0272,0.0268,0.0268,0.0265,0.0271,0.0252,0.0243,0.0217,0.0205,0.0176,0.0156,0.0155,0.0136,0.0123,0.0122,0.0151,0.0154,0.0157,0.017,0.0143,0,0,0,0,0,0.0293,0.0287,0.0282,0.0271,0.0267,0.0266,0.0267,0.0268,0.0251,0.0244,0.0226,0.0199,0.0173,0.0155,0.0129,0.0106,0.0092,0.0111,0.0114,0.0116,0.0121,0.0109,0.0111,0.0087,0.0087,0.0087,0,0,0.0292,0.0284,0.0281,0.0272,0.0264,0.0271,0.0265,0.026,0.027,0.0232,0.0229,0.0202,0.0168,0.0149,0.0135,0.013,0.0114,0.0117,0.0119,0.0123,0.011,0.0112,0.0114,0.0087,0.0087,0.0087,0,0,0.0291,0.0273,0.0274,0.027,0.0261,0.0266,0.0265,0.0266,0.0266,0.0252,0.0235,0.0214,0.0174,0.0164,0.015,0.0151,0.0128,0.0145,0.0168,0.0157,0.0159,0.016,0.0141,0.014,0.0148,0.0149,0.0149,0,0.0295,0.0288,0.0274,0.0273,0.0274,0.0265,0.0275,0.0275,0.0267,0.0268,0.025,0.0217,0.0187,0.0176,0.0177,0.0159,0.0141,0.0158,0.0161,0.0162,0.0163,0.0143,0.0142,0.015,0.015,0.015,0.015,0,0.0295,0.0294,0.0287,0.0288,0.029,0.0288,0.0288,0.0296,0.0293,0.0295,0.0279,0.0242,0.0226,0.0218,0.0191,0.0192,0.0173,0.0164,0.0153,0.0167,0.0145,0.0143,0.0153,0.0152,0.0152,0.0151,0,0,0.03,0.0295,0.0293,0.0303,0.0297,0.0303,0.0314,0.0328,0.0347,0.0325,0.0342,0.0296,0.0281,0.0264,0.0238,0.0226,0.0213,0.0197,0.0196,0.018,0.0177,0.0161,0.0158,0.02,0.02,0.02,0.0156,0,0.031,0.0325,0.0315,0.0335,0.0348,0.0342,0.0361,0.0369,0.037,0.0384,0.0347,0.0341,0.0296,0.029,0.0268,0.0231,0.0211,0.0225,0.0163,0.0161,0.0148,0.0156,0.0179,0.0141,0.0155,0.0154,0.0154,0,0.0317,0.0332,0.0357,0.0377,0.0379,0.0388,0.0422,0.0436,0.0445,0.0446,0.043,0.0399,0.0374,0.0337,0.0272,0.028,0.0229,0.0196,0.0193,0.0167,0.0144,0.013,0.0138,0.0151,0.0152,0.0152,0.0152,0,0.0344,0.0359,0.0386,0.0389,0.0413,0.0422,0.0433,0.0452,0.0479,0.0485,0.0502,0.0456,0.0443,0.0374,0.0288,0.028,0.0218,0.0201,0.0137,0.0135,0.0137,0.0135,0.0156,0.0156,0.0156,0.0156,0.0156,0,0.0361,0.0379,0.0399,0.0413,0.0452,0.0449,0.0487,0.0504,0.0531,0.0568,0.053,0.0544,0.0451,0.0399,0.0311,0.0219,0.0232,0.0143,0.0126,0.0149,0.0149,0.0145,0.0144,0.0154,0.0155,0.0155,0.0155,0,0.038,0.0392,0.0429,0.0457,0.0466,0.0492,0.0521,0.0556,0.0579,0.0628,0.0632,0.0613,0.0549,0.0448,0.0345,0.0259,0.0169,0.013,0.0158,0.0145,0.0086,0.0087,0.0059,0.0058,0.0058,0.0057,0.0057,0,0.0389,0.0413,0.046,0.0489,0.0495,0.0529,0.0559,0.0584,0.0621,0.0669,0.0695,0.0657,0.0633,0.0476,0.0334,0.0188,0.0165,0.0101,0.0091,0.0091,0.0077,0.008,0.0082,0.0103,0.0102,0.0102,0.0102,0,0.0415,0.0431,0.0464,0.0521,0.0553,0.06,0.0632,0.0672,0.0712,0.075,0.0782,0.0766,0.0641,0.0507,0.0317,0.0217,0.0127,0.0095,0.0096,0.0124,0.0129,0.0116,0.0118,0.0102,0.0102,0.0102,0.0102,0.0102,0.0431,0.0458,0.05,0.055,0.0596,0.0651,0.0683,0.073,0.0787,0.0837,0.0828,0.0806,0.068,0.0439,0.0283,0.012,0.0126,0.0059,0.0061,0.0062,0.0076,0.0079,0.0044,0.0044,0.0044,0.0044,0.0044,0,0.0448,0.0474,0.0523,0.0579,0.0622,0.0648,0.0723,0.0759,0.0815,0.0855,0.0868,0.0737,0.0607,0.0456,0.0225,0.0081,0.0073,0.0027,0.0057,0.0059,0.0061,0.0075,0.0043,0.0043,0.0042,0.0042,0,0,0.0459,0.0494,0.0514,0.0578,0.0619,0.0678,0.0721,0.0788,0.0829,0.0847,0.0834,0.0818,0.065,0.0479,0.0303,0.0173,0.014,0.0139,0.0157,0.0216,0.0218,0.0099,0.0126,0,0,0,0,0]}],[{"header":{"parameterUnit":"m.s-1","parameterCategory":2,"la1":30.2991,"la2":30.254,"lo1":-89.0895,"lo2":-89.0444,"dy":0.0017,"dx":0.0017,"nx":28,"ny":28,"refTime":"2024-10-20T03:00:00:Z","depth":"4","parameterNumber":2,"parameterNumberName":"U-component_of_CURRENTS"},"data":[0,0,0,0,0,0,0,0,0,0,0,0,0,0,0,0,0,0,0,0,0,0,0,0,0,0,0,0,0,0,0,0,0,0,0,0,0,0,0,0,0,0,0,0,0,0,0,0,0,0,0,0,0,0,0,0,0,0,0.0842,0.0843,0,0.0887,0.0888,0.0888,0.0918,0.0918,0.0918,0.0919,0.0986,0.0987,0.0989,0,0,0,0,0,0,0,0,0,0,0,0,0,0.0744,0.0745,0.0842,0.0843,0.0843,0.0887,0.0888,0.0888,0.0918,0.0918,0.0919,0.0919,0.0986,0.0987,0.0989,0,0,0,0,0,0,0,0,0,0,0,0,0,0.0785,0.0746,0.0842,0.0865,0.0868,0.0887,0.0888,0.0888,0.0917,0.0918,0.0919,0.0919,0.0985,0.0987,0.0989,0.099,0,0,0.0996,0.0996,0,0,0,0,0,0,0,0,0.0783,0.0788,0.0861,0.0864,0.0867,0.09,0.0878,0.0924,0.0917,0.0896,0.0919,0.092,0.096,0.0964,0.0968,0.0993,0.0996,0.0996,0.0997,0.0998,0.0998,0,0,0,0,0,0,0,0.078,0.0786,0.0857,0.0862,0.0865,0.0861,0.0868,0.0886,0.0923,0.0898,0.0901,0.091,0.0962,0.0966,0.097,0.0997,0.0996,0.0998,0.0999,0.1,0.1095,0.1096,0,0,0,0,0,0,0.0781,0.0784,0.0856,0.0859,0.0828,0.0863,0.087,0.0886,0.0922,0.0929,0.0909,0.0911,0.0962,0.0967,0.0972,0.1038,0.0998,0.1,0.1001,0.1094,0.1095,0.1097,0,0,0,0,0,0,0.0779,0.0787,0.0854,0.0824,0.0832,0.0864,0.0882,0.0887,0.0914,0.0931,0.0937,0.0934,0.0962,0.0969,0.1014,0.1038,0.1001,0.1003,0.1092,0.1094,0.1096,0.1129,0,0,0,0,0,0,0.0776,0.0786,0.08,0.0824,0.0834,0.088,0.0882,0.0888,0.0918,0.0922,0.0954,0.0959,0.0963,0.1011,0.1016,0.104,0.1004,0.1091,0.1093,0.1095,0.1126,0.1131,0.1136,0,0,0,0,0,0.0772,0.0786,0.08,0.0809,0.0852,0.0881,0.0886,0.0908,0.0919,0.0933,0.0961,0.0959,0.1029,0.1013,0.1019,0.1045,0.1089,0.1092,0.1095,0.1124,0.113,0.1136,0,0,0,0,0,0,0.0749,0.0791,0.0807,0.0834,0.0863,0.0887,0.0905,0.092,0.0952,0.0965,0.0977,0.0984,0.1033,0.1035,0.1018,0.108,0.1059,0.1063,0.1078,0.1085,0.109,0.1087,0.1006,0,0,0,0,0,0.0751,0.0777,0.0813,0.0837,0.0855,0.0885,0.0901,0.0922,0.0951,0.0966,0.0989,0.1016,0.1044,0.1063,0.1085,0.1119,0.1122,0.114,0.1145,0.1149,0.1152,0.1183,0.1191,0.1106,0.1106,0.1106,0,0,0.0752,0.0777,0.0793,0.0834,0.0861,0.0889,0.0897,0.0935,0.096,0.0969,0.1014,0.1038,0.1059,0.1099,0.112,0.1107,0.1175,0.1153,0.1156,0.1156,0.1187,0.1195,0.1203,0.1108,0.1108,0.1107,0,0,0.0758,0.0789,0.0812,0.0841,0.0887,0.0905,0.0922,0.0964,0.0986,0.103,0.1046,0.1086,0.1124,0.1144,0.1158,0.1205,0.1202,0.1216,0.1238,0.1269,0.1276,0.1282,0.1292,0.1299,0.1216,0.1216,0.1216,0,0.0757,0.0792,0.0822,0.0852,0.0879,0.0916,0.0948,0.0972,0.1022,0.1045,0.1052,0.1126,0.1144,0.1193,0.121,0.1216,0.1227,0.1212,0.1275,0.1281,0.1287,0.1295,0.1303,0.1218,0.1217,0.1217,0.1217,0,0.0779,0.0813,0.0831,0.0881,0.0911,0.0948,0.0989,0.1022,0.1055,0.108,0.1145,0.1175,0.1219,0.1231,0.1236,0.129,0.1282,0.1279,0.1257,0.1298,0.1304,0.1311,0.122,0.122,0.1219,0.1219,0,0,0.0767,0.0832,0.0844,0.087,0.0934,0.096,0.1007,0.1056,0.1091,0.114,0.1187,0.124,0.1267,0.1284,0.1303,0.1326,0.1374,0.1323,0.1324,0.1327,0.1434,0.1326,0.1323,0.1387,0.1388,0.1389,0.142,0,0.0779,0.0827,0.0863,0.0917,0.0945,0.0996,0.1035,0.1086,0.1128,0.118,0.1225,0.1279,0.1284,0.1318,0.1346,0.1373,0.1395,0.1365,0.1399,0.14,0.1294,0.1328,0.1394,0.1425,0.1426,0.1427,0.1428,0,0.0792,0.082,0.0869,0.0935,0.0956,0.0995,0.1067,0.1113,0.1186,0.122,0.1282,0.1319,0.138,0.1373,0.1439,0.1423,0.1435,0.1443,0.1444,0.1335,0.1303,0.1378,0.144,0.1439,0.1438,0.1438,0.1437,0,0.076,0.0829,0.0865,0.089,0.0965,0.1003,0.1055,0.1129,0.1177,0.1257,0.1295,0.1368,0.1418,0.145,0.1477,0.1469,0.1529,0.1519,0.1428,0.142,0.1494,0.1487,0.1558,0.1558,0.1558,0.1558,0.1558,0,0.0751,0.0787,0.0855,0.0877,0.0929,0.0997,0.1066,0.1119,0.1208,0.126,0.1326,0.1366,0.1443,0.1484,0.1495,0.1478,0.1549,0.1434,0.1424,0.1506,0.15,0.1498,0.149,0.1559,0.1559,0.1559,0.1558,0,0.0717,0.0762,0.0807,0.0886,0.0916,0.096,0.1073,0.1117,0.1205,0.1274,0.1306,0.139,0.1434,0.1482,0.1533,0.1491,0.149,0.1465,0.1544,0.1538,0.1354,0.1348,0.1364,0.136,0.1357,0.1355,0.1353,0,0.0704,0.0721,0.0802,0.083,0.0873,0.0948,0.0998,0.1103,0.1151,0.1269,0.129,0.1369,0.1408,0.1391,0.1445,0.1451,0.1434,0.1419,0.1387,0.1347,0.1336,0.1335,0.1333,0.1348,0.1347,0.1346,0.1346,0,0.0675,0.071,0.0743,0.0796,0.085,0.09,0.0982,0.1007,0.1122,0.1209,0.124,0.126,0.13,0.1326,0.1341,0.1343,0.142,0.1387,0.1393,0.1363,0.1328,0.132,0.1322,0.1335,0.1337,0.1338,0.1338,0,0.0659,0.067,0.0716,0.0759,0.0816,0.084,0.0886,0.0941,0.1,0.113,0.1134,0.1207,0.1288,0.1269,0.1282,0.1275,0.1254,0.1206,0.1221,0.1233,0.1174,0.111,0.1043,0,0,0,0,0,0.0637,0.0648,0.0679,0.0716,0.0766,0.0797,0.0872,0.0918,0.1019,0.1013,0.1076,0.1103,0.1119,0.1156,0.1123,0.1218,0.1257,0.1172,0.1209,0.1278,0.129,0.1232,0,0,0,0,0,0,0.0624,0.0655,0.066,0.0672,0.0687,0.073,0.0768,0.0828,0.0834,0.0938,0.0954,0.1031,0.1066,0.1132,0.1102,0.1113,0.1109,0.1225,0.1222,0.1271,0.1282,0.1292,0.1236,0,0,0,0,0]},{"header":{"parameterUnit":"m.s-1","parameterCategory":2,"la1":30.2991,"la2":30.254,"lo1":-89.0895,"lo2":-89.0444,"dy":0.0017,"dx":0.0017,"nx":28,"ny":28,"refTime":"2024-10-20T03:00:00:Z","depth":"4","parameterNumber":3,"parameterNumberName":"V-component_of_CURRENTS"},"data":[0,0,0,0,0,0,0,0,0,0,0,0,0,0,0,0,0,0,0,0,0,0,0,0,0,0,0,0,0,0,0,0,0,0,0,0,0,0,0,0,0,0,0,0,0,0,0,0,0,0,0,0,0,0,0,0,0,0,0.0327,0.0327,0,0.0323,0.0323,0.0323,0.0335,0.0335,0.0335,0.0335,0.0307,0.0306,0.0305,0,0,0,0,0,0,0,0,0,0,0,0,0,0.034,0.034,0.0327,0.0327,0.0326,0.0323,0.0323,0.0323,0.0335,0.0335,0.0335,0.0335,0.0307,0.0306,0.0305,0,0,0,0,0,0,0,0,0,0,0,0,0,0.0336,0.034,0.0327,0.0331,0.0331,0.0323,0.0323,0.0323,0.0334,0.0335,0.0335,0.0335,0.0307,0.0306,0.0305,0.0289,0,0,0.03,0.03,0,0,0,0,0,0,0,0,0.0337,0.0336,0.033,0.033,0.0331,0.0328,0.0317,0.031,0.0334,0.0335,0.0335,0.0336,0.031,0.0309,0.031,0.0288,0.0287,0.03,0.0299,0.0299,0.0298,0,0,0,0,0,0,0,0.0337,0.0336,0.0327,0.033,0.033,0.0331,0.0331,0.0316,0.0322,0.0335,0.0335,0.0332,0.031,0.0311,0.0309,0.0286,0.03,0.0299,0.0298,0.0297,0.0267,0.0267,0,0,0,0,0,0,0.0334,0.0337,0.0327,0.0327,0.0333,0.033,0.033,0.033,0.0322,0.0321,0.0332,0.0333,0.0313,0.0311,0.0308,0.0305,0.0299,0.0297,0.0296,0.0267,0.0267,0.0267,0,0,0,0,0,0,0.0334,0.0333,0.0327,0.033,0.0329,0.0329,0.0329,0.033,0.0335,0.032,0.0319,0.0337,0.0314,0.031,0.03,0.0303,0.0297,0.0295,0.0267,0.0267,0.0267,0.0288,0,0,0,0,0,0,0.0335,0.0334,0.0336,0.033,0.0329,0.0325,0.0328,0.0329,0.0332,0.0333,0.0324,0.0322,0.0314,0.0303,0.0299,0.0301,0.0294,0.0267,0.0267,0.0267,0.0287,0.0289,0.029,0,0,0,0,0,0.0335,0.0336,0.0337,0.0336,0.0331,0.0325,0.0325,0.0327,0.0332,0.0334,0.0329,0.0322,0.0301,0.0302,0.0297,0.0299,0.0267,0.0267,0.0267,0.0287,0.0289,0.029,0,0,0,0,0,0,0.0339,0.0337,0.0338,0.0337,0.0332,0.0326,0.0326,0.0329,0.0328,0.0329,0.032,0.0317,0.031,0.03,0.0301,0.0291,0.0283,0.0283,0.03,0.0301,0.0303,0.0306,0.0293,0,0,0,0,0,0.0341,0.0346,0.0338,0.0338,0.0334,0.0331,0.033,0.0331,0.0327,0.0328,0.0324,0.0316,0.0306,0.0301,0.0291,0.0282,0.0261,0.0281,0.0282,0.0284,0.0283,0.0256,0.0255,0.0268,0.0268,0.0268,0,0,0.0342,0.0342,0.0343,0.034,0.0335,0.0334,0.0332,0.0329,0.0335,0.0322,0.033,0.0319,0.0305,0.0299,0.0295,0.0292,0.0268,0.0284,0.0285,0.0284,0.0256,0.0255,0.0254,0.0268,0.0268,0.0268,0,0,0.0342,0.0343,0.0345,0.0343,0.0338,0.0337,0.0338,0.0335,0.0339,0.0339,0.0334,0.0326,0.0314,0.0306,0.0299,0.03,0.0276,0.0298,0.0308,0.0282,0.028,0.0279,0.0245,0.0241,0.03,0.03,0.03,0,0.0343,0.0347,0.0344,0.0344,0.0344,0.034,0.0341,0.0344,0.0342,0.0345,0.0344,0.0328,0.0318,0.0307,0.0311,0.0304,0.0282,0.0303,0.0283,0.0281,0.028,0.0246,0.024,0.0301,0.0301,0.03,0.03,0,0.0343,0.0348,0.0347,0.0351,0.0351,0.035,0.0349,0.0356,0.0361,0.0361,0.0356,0.034,0.0332,0.0327,0.032,0.0305,0.0291,0.0288,0.0279,0.028,0.0244,0.0238,0.0302,0.0302,0.0302,0.0301,0,0,0.034,0.0347,0.0348,0.0356,0.0357,0.0357,0.0366,0.0371,0.0379,0.0374,0.0376,0.0361,0.0353,0.0344,0.0331,0.0311,0.0279,0.0297,0.0295,0.0264,0.0212,0.0209,0.0202,0.0272,0.0271,0.027,0.019,0,0.0342,0.0351,0.0354,0.0366,0.0369,0.0373,0.0384,0.0388,0.039,0.0392,0.0374,0.0368,0.0359,0.0353,0.0331,0.0294,0.0265,0.0301,0.0216,0.0213,0.0211,0.0196,0.0268,0.0185,0.0184,0.0183,0.0182,0,0.0339,0.0351,0.0363,0.0381,0.0382,0.0391,0.0408,0.0417,0.0415,0.0415,0.0402,0.0386,0.0359,0.035,0.028,0.0303,0.0259,0.0226,0.0222,0.0209,0.02,0.0185,0.0171,0.0172,0.0173,0.0173,0.0174,0,0.034,0.0356,0.0372,0.0377,0.0395,0.0406,0.0417,0.0424,0.0436,0.0428,0.0426,0.0391,0.0373,0.0317,0.0256,0.0264,0.017,0.0173,0.0125,0.0124,0.0141,0.0143,0.0116,0.0116,0.0116,0.0116,0.0116,0,0.0338,0.0351,0.0377,0.0384,0.041,0.0417,0.0437,0.0445,0.0452,0.046,0.0438,0.0428,0.0364,0.0308,0.0249,0.0167,0.0161,0.0119,0.0103,0.0151,0.0155,0.0136,0.014,0.0113,0.0114,0.0114,0.0115,0,0.0328,0.0346,0.0367,0.0396,0.0409,0.0426,0.0455,0.0468,0.0475,0.0482,0.048,0.0447,0.0381,0.0307,0.021,0.016,0.0081,0.0051,0.0099,0.0087,0.0051,0.0057,-0.0012,-0.0012,-0.0013,-0.0014,-0.0014,0,0.032,0.0332,0.0374,0.0395,0.0409,0.0438,0.0458,0.0478,0.0491,0.0493,0.0493,0.0442,0.0409,0.0266,0.0191,0.0067,0.0056,0.0003,0.0037,0.0047,0.0038,0.0044,0.0051,-0.0015,-0.0015,-0.0015,-0.0016,0,0.0308,0.0327,0.0347,0.039,0.0419,0.045,0.0479,0.0491,0.0512,0.0518,0.0499,0.0439,0.0363,0.0268,0.0169,0.0085,0.0033,-0.0004,-0.0003,0.0029,0.0043,0.0035,0.0042,-0.0018,-0.0017,-0.0017,-0.0017,0,0.0299,0.0311,0.0343,0.038,0.0419,0.0451,0.0469,0.0486,0.0502,0.0511,0.0501,0.0433,0.0397,0.0275,0.0185,0.0102,0.0088,0.0057,0.0055,0.0056,0.0108,0.0137,0.0085,0,0,0,0,0,0.029,0.0305,0.0332,0.0373,0.0411,0.0438,0.0478,0.0495,0.0516,0.0506,0.0508,0.0443,0.0327,0.0278,0.0195,0.0169,0.0066,0.0067,0.0027,-0.003,-0.0028,0.0022,0,0,0,0,0,0,0.0284,0.0308,0.0323,0.0361,0.0389,0.043,0.046,0.0478,0.0475,0.0488,0.0431,0.0413,0.0302,0.0374,0.0191,0.0167,0.0127,0.0018,0.0016,-0.0032,-0.0029,-0.0027,0.0025,0,0,0,0,0]}]]